• In Czech Republic
  • List of Countries
  • For 7 days
  • Water Temperature
  • Satellite Maps
  • Weather Map
  • Weather Widgets
  • user-avatar
    Login

    Hourly Weather Glasgow

    Today, 27 April, Friday

    Time Temperature Precipitation Wind Pressure Humidity
    00:00 +4°C° 0 mm 3 mps 754 mmHg 92%
    01:00 +3°C° 0 mm 3 mps 754 mmHg 91%
    02:00 +3°C° 0 mm 3 mps 754 mmHg 91%
    03:00 +3°C° 0 mm 3 mps 754 mmHg 91%
    04:00 +4°C° 0 mm 3 mps 754 mmHg 90%
    05:00 +4°C° 0 mm 3 mps 754 mmHg 89%
    06:00 +4°C° 0 mm 3 mps 754 mmHg 87%
    07:00 +7°C° 0 mm 2 mps 754 mmHg 82%
    08:00 +8°C° 0 mm 2 mps 754 mmHg 76%
    09:00 +9°C° 0 mm 2 mps 754 mmHg 71%
    10:00 +9°C° 0.3 mm 2 mps 754 mmHg 70%
    11:00 +10°C° 0.3 mm 2 mps 754 mmHg 70%
    12:00 +10°C° 0.3 mm 2 mps 754 mmHg 69%
    13:00 +10°C° 0.5 mm 2 mps 754 mmHg 72%
    14:00 +9°C° 0.5 mm 2 mps 754 mmHg 75%
    15:00 +9°C° 0.5 mm 2 mps 754 mmHg 78%
    16:00 +8°C° 0.3 mm 2 mps 755 mmHg 79%
    17:00 +9°C° 0.3 mm 1 mps 755 mmHg 81%
    18:00 +9°C° 0.3 mm 1 mps 755 mmHg 83%
    19:00 +8°C° 0.1 mm 1 mps 755 mmHg 85%
    20:00 +7°C° 0.1 mm 1 mps 756 mmHg 88%
    21:00 +7°C° 0.1 mm 1 mps 756 mmHg 91%
    22:00 +6°C° 0 mm 1 mps 756 mmHg 92%
    23:00 +6°C° 0 mm 1 mps 756 mmHg 92%

    Tomorrow, 28 April, Saturday

    Time Temperature Precipitation Wind Pressure Humidity
    00:00 +5°C° 0 mm 1 mps 756 mmHg 93%
    01:00 +5°C° 0 mm 1 mps 757 mmHg 94%
    02:00 +4°C° 0 mm 2 mps 757 mmHg 94%
    03:00 +3°C° 0 mm 2 mps 757 mmHg 95%
    04:00 +4°C° 0.1 mm 2 mps 757 mmHg 94%
    05:00 +4°C° 0.1 mm 2 mps 757 mmHg 94%
    06:00 +4°C° 0.1 mm 3 mps 758 mmHg 93%
    07:00 +5°C° 0.1 mm 3 mps 758 mmHg 90%
    08:00 +7°C° 0.1 mm 3 mps 758 mmHg 87%
    09:00 +7°C° 0.1 mm 3 mps 759 mmHg 83%
    10:00 +7°C° 0.1 mm 4 mps 759 mmHg 81%
    11:00 +7°C° 0.1 mm 4 mps 759 mmHg 79%
    12:00 +7°C° 0.1 mm 4 mps 759 mmHg 77%
    13:00 +7°C° 0.1 mm 4 mps 759 mmHg 76%
    14:00 +7°C° 0.1 mm 4 mps 759 mmHg 74%
    15:00 +7°C° 0.1 mm 4 mps 759 mmHg 72%
    16:00 +8°C° 0 mm 3 mps 760 mmHg 72%
    17:00 +7°C° 0 mm 3 mps 760 mmHg 73%
    18:00 +7°C° 0 mm 3 mps 760 mmHg 73%
    19:00 +4°C° 0 mm 3 mps 760 mmHg 79%
    20:00 +3°C° 0 mm 3 mps 761 mmHg 85%
    21:00 +3°C° 0 mm 2 mps 761 mmHg 90%
    22:00 +2°C° 0 mm 3 mps 761 mmHg 91%
    23:00 +1°C° 0 mm 3 mps 761 mmHg 91%

    Day after tomorrow, 29 April, Sunday

    Time Temperature Precipitation Wind Pressure Humidity
    00:00 +1°C° 0 mm 3 mps 761 mmHg 92%
    01:00 +1°C° 0 mm 3 mps 761 mmHg 93%
    02:00 +1°C° 0 mm 3 mps 761 mmHg 93%
    03:00 0°C° 0 mm 4 mps 761 mmHg 94%
    04:00 +1°C° 0 mm 4 mps 761 mmHg 92%
    05:00 +1°C° 0 mm 4 mps 761 mmHg 91%
    06:00 +3°C° 0 mm 4 mps 761 mmHg 89%
    07:00 +4°C° 0 mm 4 mps 761 mmHg 82%
    08:00 +5°C° 0 mm 4 mps 762 mmHg 74%
    09:00 +7°C° 0 mm 4 mps 762 mmHg 67%
    10:00 +7°C° 0 mm 4 mps 762 mmHg 65%
    11:00 +8°C° 0 mm 4 mps 762 mmHg 63%
    12:00 +8°C° 0 mm 5 mps 762 mmHg 61%
    13:00 +8°C° 0 mm 4 mps 761 mmHg 61%
    14:00 +8°C° 0 mm 4 mps 761 mmHg 62%
    15:00 +8°C° 0 mm 4 mps 761 mmHg 62%
    16:00 +7°C° 0 mm 4 mps 761 mmHg 65%
    17:00 +7°C° 0 mm 5 mps 761 mmHg 67%
    18:00 +6°C° 0 mm 5 mps 761 mmHg 70%
    19:00 +5°C° 0 mm 4 mps 762 mmHg 78%
    20:00 +3°C° 0 mm 4 mps 762 mmHg 85%
    21:00 +1°C° 0 mm 4 mps 762 mmHg 93%
    22:00 +1°C° 0 mm 4 mps 762 mmHg 93%
    23:00 0°C° 0 mm 4 mps 762 mmHg 93%

    30 April, Monday

    Time Temperature Precipitation Wind Pressure Humidity
    00:00 0°C° 0 mm 4 mps 762 mmHg 93%
    01:00 0°C° 0 mm 5 mps 761 mmHg 93%
    02:00 0°C° 0 mm 5 mps 761 mmHg 92%
    03:00 -1°C° 0 mm 6 mps 761 mmHg 92%
    04:00 +1°C° 0 mm 6 mps 761 mmHg 89%
    05:00 0°C° 0 mm 7 mps 760 mmHg 86%
    06:00 +2°C° 0 mm 7 mps 760 mmHg 83%
    07:00 +2°C° 0 mm 8 mps 760 mmHg 78%
    08:00 +4°C° 0 mm 8 mps 760 mmHg 72%
    09:00 +5°C° 0 mm 8 mps 760 mmHg 66%
    10:00 +6°C° 0 mm 9 mps 759 mmHg 64%
    11:00 +6°C° 0 mm 9 mps 759 mmHg 61%
    12:00 +7°C° 0 mm 9 mps 758 mmHg 58%
    13:00 +7°C° 0 mm 9 mps 758 mmHg 59%
    14:00 +7°C° 0 mm 8 mps 758 mmHg 59%
    15:00 +7°C° 0 mm 8 mps 757 mmHg 59%
    16:00 +6°C° 0 mm 8 mps 757 mmHg 62%
    17:00 +5°C° 0 mm 8 mps 757 mmHg 65%
    18:00 +5°C° 0 mm 8 mps 757 mmHg 68%
    19:00 +3°C° 0 mm 7 mps 756 mmHg 74%
    20:00 +2°C° 0 mm 7 mps 756 mmHg 80%
    21:00 0°C° 0 mm 7 mps 756 mmHg 87%
    22:00 0°C° 0 mm 7 mps 756 mmHg 88%
    23:00 +1°C° 0 mm 6 mps 755 mmHg 89%

    1 May, Tuesday

    Time Temperature Precipitation Wind Pressure Humidity
    00:00 -1°C° 0 mm 6 mps 755 mmHg 90%
    01:00 -1°C° 0 mm 6 mps 755 mmHg 89%
    02:00 0°C° 0 mm 5 mps 755 mmHg 89%
    03:00 -1°C° 0 mm 5 mps 754 mmHg 88%
    04:00 0°C° 0 mm 4 mps 754 mmHg 83%
    05:00 +1°C° 0 mm 4 mps 754 mmHg 78%
    06:00 +3°C° 0 mm 4 mps 754 mmHg 73%
    07:00 +5°C° 0 mm 3 mps 754 mmHg 65%
    08:00 +8°C° 0 mm 3 mps 754 mmHg 57%
    09:00 +10°C° 0 mm 3 mps 754 mmHg 49%
    10:00 +11°C° 0 mm 4 mps 754 mmHg 48%
    11:00 +12°C° 0 mm 4 mps 753 mmHg 47%
    12:00 +12°C° 0 mm 5 mps 753 mmHg 46%
    13:00 +12°C° 0 mm 5 mps 753 mmHg 48%
    14:00 +11°C° 0 mm 6 mps 753 mmHg 50%
    15:00 +11°C° 0 mm 6 mps 753 mmHg 52%
    16:00 +10°C° 0.1 mm 6 mps 753 mmHg 60%
    17:00 +9°C° 0.1 mm 6 mps 753 mmHg 68%
    18:00 +8°C° 0.1 mm 6 mps 752 mmHg 75%
    19:00 +8°C° 0 mm 6 mps 752 mmHg 78%
    20:00 +7°C° 0 mm 6 mps 752 mmHg 81%
    21:00 +5°C° 0 mm 7 mps 752 mmHg 84%
    22:00 +5°C° 0.2 mm 7 mps 752 mmHg 86%
    23:00 +5°C° 0.2 mm 7 mps 752 mmHg 88%

    2 May, Wednesday

    Time Temperature Precipitation Wind Pressure Humidity
    00:00 +5°C° 0.2 mm 7 mps 752 mmHg 90%
    01:00 +5°C° 0.2 mm 7 mps 752 mmHg 91%
    02:00 +5°C° 0.2 mm 6 mps 752 mmHg 92%
    03:00 +5°C° 0.2 mm 6 mps 752 mmHg 92%
    04:00 +6°C° 0.1 mm 5 mps 752 mmHg 92%
    05:00 +6°C° 0.1 mm 5 mps 752 mmHg 92%
    06:00 +6°C° 0.1 mm 5 mps 753 mmHg 92%
    07:00 +6°C° 0 mm 5 mps 753 mmHg 85%
    08:00 +7°C° 0 mm 5 mps 754 mmHg 79%
    09:00 +7°C° 0 mm 5 mps 754 mmHg 72%
    10:00 +8°C° 0 mm 5 mps 754 mmHg 67%
    11:00 +9°C° 0 mm 5 mps 755 mmHg 63%
    12:00 +10°C° 0 mm 5 mps 755 mmHg 58%
    13:00 +10°C° 0.1 mm 6 mps 755 mmHg 61%
    14:00 +10°C° 0.1 mm 6 mps 755 mmHg 64%
    15:00 +10°C° 0.1 mm 7 mps 756 mmHg 67%
    16:00 +10°C° 0.1 mm 7 mps 756 mmHg 67%
    17:00 +10°C° 0.1 mm 7 mps 756 mmHg 68%
    18:00 +10°C° 0.1 mm 6 mps 757 mmHg 68%
    19:00 +8°C° 0 mm 6 mps 757 mmHg 73%
    20:00 +7°C° 0 mm 6 mps 758 mmHg 78%
    21:00 +6°C° 0 mm 5 mps 759 mmHg 82%
    22:00 +5°C° 0 mm 5 mps 759 mmHg 84%
    23:00 +5°C° 0 mm 5 mps 760 mmHg 86%
    Show more